Regional Weather Roundup
Issued by NWS State College, PA

Home | Current Version | Previous Version | Text Only | Print | Product List | Glossary Off
Versions: 1 2 3 4 5 6 7 8 9 10 11 12 13 14 15 16 17 18 19 20 21 22 23 24 25 26 27 28 29 30 31 32 33 34 35 36 37 38 39 40 41 42 43 44 45 46 47 48 49 50

000
ASUS41 KCTP 051410
RWRCTP

REGIONAL WEATHER ROUNDUP
NATIONAL WEATHER SERVICE STATE COLLEGE PA
900 AM EST MON DEC 05 2016

Note: "fair" indicates few or no clouds below 12,000 feet with no
significant weather and/or obstructions to visibility.

* = STATION THAT DOES NOT REPORT PRECIPITATION /E.G. RAIN...SNOW...ETC/
    THUNDER OR FOG.

PAZ002>004-007>009-013>016-020>023-029>032-051500-
WESTERN PENNSYLVANIA

CITY           SKY/WX    TMP DP  RH WIND       PRES   REMARKS
ERIE           CLOUDY    41  32  70 W14G26    29.99R
MEADVILLE      CLOUDY    35  30  82 SW8       29.99R
FRANKLIN*        N/A     36  28  75 W8        30.02R
NEW CASTLE     CLOUDY    36  31  82 W8        30.07R
BEAVER COUNTY  CLOUDY    34  30  86 W10G17    30.06R
BUTLER*        CLOUDY    36  30  80 W8        30.07R
PITTSBURGH INT CLOUDY    39  33  79 NW13      30.05R
PITTSBURGH     CLOUDY    39  31  72 W9        30.04R
INDIANA*       CLOUDY    39  36  87 W12G17    30.05R
LATROBE        PTSUNNY   41  36  81 W12       30.05R
WASHINGTON CO* CLOUDY    39  30  70 W7        30.07R
$$

PAZ004>006-010>012-017>019-024>028-033>037-041-042-045-046-049>053-051500-
CENTRAL PENNSYLVANIA

CITY           SKY/WX    TMP DP  RH WIND       PRES   REMARKS
BRADFORD       SNOW      33  33 100 W8        29.92R VSB 1/2
DUBOIS         CLOUDY    35  32  88 W14       29.97R
CLEARFIELD     LGT RAIN  37  35  92 W8        29.98R
JOHNSTOWN      LGT RAIN  37  34  89 W22G33    29.95R
ALTOONA        LGT RAIN  42  36  79 W12G20    29.97R
STATE COLLEGE  PTSUNNY   39  34  81 W9        29.96R
WILLIAMSPORT   CLOUDY    37  37 100 CALM      29.97R
SELINSGROVE    CLOUDY    37  37 100 SW5       30.00R
FT INDIANTOWN  CLOUDY    36  36 100 E1        30.00R FOG
CAPITAL CITY   CLOUDY    41  37  86 W5        30.01R
HARRISBURG     DRIZZLE   41  39  93 CALM      30.00R
YORK           PTSUNNY   42  40  92 W7        30.00R
$$

PAZ038>040-043-044-047-048-054-055-060>062-067>071-051500-
EASTERN PENNSYLVANIA

CITY           SKY/WX    TMP DP  RH WIND       PRES   REMARKS
SCRANTON       CLOUDY    35  34  96 SW9       29.95R FOG
MOUNT POCONO   CLOUDY    31  30  96 W9G18     29.92R FOG
ALLENTOWN      CLOUDY    35  32  88 CALM      30.00R FOG
QUAKERTOWN*    CLOUDY    37  37 100 CALM      30.00R
READING        CLOUDY    38  35  89 CALM      30.00R
LANCASTER      CLOUDY    41  41 100 W5        30.00S
COATESVILLE    CLOUDY    39  39 100 VRB5      30.01R
POTTSTOWN      CLOUDY    38  37  97 SW3       30.02S FOG
BLUE BELL      CLOUDY    39  37  93 W5        30.00R
DOYLESTOWN     CLOUDY    41  39  93 SW6       30.00R
WILLOW GROVE   NOT AVBL
NORTH PHILA    CLOUDY    44  41  89 SW7       30.02S
PHILADELPHIA   CLOUDY    42  40  92 SW10      30.01S
$$



USA.gov is the U.S. government's official web portal to all federal, state and local government web resources and services.